Tracking 35237 objects as of 6-Sep-2026
HD Live streaming from Space Station
objects crossing your sky now

STARLINK-3938

Track STARLINK-3938 now!
10-day predictions
STARLINK-3938 is classified as:


NORAD ID: 52566
Int'l Code: 2022-051AK
Launch date: May 13, 2022
Source: United States (US)
Launch site: AIR FORCE WESTERN TEST RANGE (AFWTR)
Your satellite tracking list
Your tracking list is empty




NASA's NSSDC Master Catalog

Two Line Element Set (TLE):
1 52566U 22051AK  26249.10122765  .00000980  00000-0  38996-4 0  9997
2 52566  53.1613  33.7516 0001090  83.1000 277.0127 15.35402153238752
Source of the keplerian elements: AFSPC